Regional Weather Roundup
Issued by NWS

Home | Current Version | Previous Version | Text Only | Print | Product List | Glossary Off
Versions: 1 2 3 4 5 6 7 8 9 10 11 12 13 14 15 16 17 18 19 20 21 22 23 24 25 26 27 28 29 30 31 32 33 34 35 36 37 38 39 40 41 42 43 44 45 46 47 48 49 50

000
ASUS45 KCYS 240910
RWRWY

WYOMING REGIONAL WEATHER ROUNDUP
NATIONAL WEATHER SERVICE CHEYENNE WY
300 AM MDT SUN MAY 24 2015

NOTE:  "FAIR" INDICATES FEW OR NO CLOUDS BELOW 12,000 FEET
WITH NO SIGNIFICANT WEATHER AND/OR OBSTRUCTIONS TO VISIBILITY.

WYZ001-241000-
YELLOWSTONE NATIONAL PARK

CITY           SKY/WX    TMP DP  RH WIND       PRES   REMARKS
LK YELLOWSTONE   N/A     36  32  85 VRB3      30.08F
W YELLOWSTONE  NOT AVBL

$$
WYZ002>013-054>058-071-098>099-241000-
NORTHERN WYOMING

CITY           SKY/WX    TMP DP  RH WIND       PRES   REMARKS
JACKSON        FAIR      39  37  93 N13       30.00F WCI  32
CODY           CLOUDY    46  39  76 NW12      30.04S
GREYBULL       MOCLDY    51  46  83 N14       29.97F
WORLAND        CLOUDY    50  46  86 NW10      29.96F
SHERIDAN       CLOUDY    49  47  93 N6        30.03S
BUFFALO        CLOUDY    47  46  97 NW15      30.02F FOG
GILLETTE       LGT RAIN  50  48  93 N8        29.98F
HULETT         CLOUDY    50  50 100 E8        30.01S FOG
NEWCASTLE      DRIZZLE   50  50 100 CALM      29.97S

$$
WYZ014>020-022>026-101>103-241000-
CENTRAL WYOMING

CITY           SKY/WX    TMP DP  RH WIND       PRES   REMARKS
BIG PINEY      CLOUDY    40  38  93 NW3       30.01F
PINEDALE       FAIR      37  36  93 W5        30.01F WCI  34
DUBOIS         FAIR      36  34  93 W6        30.02F WCI  31
LANDER         LGT RAIN  46  43  89 NW8       29.97F FOG
RIVERTON       LGT RAIN  47  44  90 N12       29.98F
CASPER         RAIN      45  44  97 E3        29.95F FOG
DOUGLAS        LGT RAIN  46  46 100 NW8       29.93F

$$
WYZ021-027>030-104>119-241000-
SOUTHERN WYOMING

CITY           SKY/WX    TMP DP  RH WIND       PRES   REMARKS
EVANSTON       CLOUDY    39  37  92 CALM      30.01F
KEMMERER       FAIR      37  36  93 N5        30.01F WCI  34
FORT BRIDGER   PTSUNNY   43  43 100 W8        30.03F
ROCK SPRINGS   LGT RAIN  42  39  89 CALM      29.99F FOG
DIXON          DRIZZLE   44  39  83 CALM      30.00S
RAWLINS        LGT RAIN  33  32  96 CALM      29.98F
SARATOGA       LGT RAIN  36  34  93 CALM      30.00S
LARAMIE        LGT RAIN  38 N/A N/A N5        29.96S WCI  34
CHEYENNE       MOCLDY    40  39  97 NW5       29.93F FOG
TORRINGTON     LGT RAIN  50  50 100 E10       29.90S
PINE BLUFFS    CLOUDY    45  45 100 CALM      29.93F

$$



USA.gov is the U.S. government's official web portal to all federal, state and local government web resources and services.